Location: Unspecified
(0.0000°N, 0.0000°E)
Time: 08:50:15
(UTC+00:00)

Vanguard 1 Rocket - Pass Details

Date: 17 December 2017
Orbit: 656 x 4222 km, 34.3° (Epoch: 15 January)

Event Time Altitude Azimuth Distance (km) Brightness Sun altitude
Rises 13:05:25 0° 251° (WSW) 2,967 10.4 61.2°
Reaches altitude 10° 13:07:42 10° 261° (W) 2,070 9.7 60.9°
Maximum altitude 13:11:49 36° 329° (NNW) 1,176 8.3 60.3°
Drops below altitude 10° 13:17:18 10° 35° (NE) 2,760 9.7 59.4°
Sets 13:20:52 0° 43° (NE) 4,145 10.5 58.9°
